User: anonymous   Login
Location: Caltech
(34.1382°N, 118.1253°W)
Time: 13:44:43
(UTC-07:00)
Language:

Cosmos 44 Rocket - Orbit

View from above orbital plane
View from above orbital plane
View from above satellite
View from above satellite

Ground track
Ground track

The orbit data is extracted from the following two-line orbital elements,

1 00877U 64053B   16270.54146228 -.00000038  00000-0  17384-4 0  9997
2 00877  65.0795 342.6573 0077626 224.6914 134.7913 14.59259021763048
Epoch (UTC): 26 September 2016 12:59:42
Eccentricity: 0.0077626
inclination: 65.0795°
perigee height: 640 km
apogee height: 750 km
right ascension of ascending node: 342.6573°
argument of perigee: 224.6914°
revolutions per day: 14.59259021
mean anomaly at epoch: 134.7913°
orbit number at epoch: 76304

The dashed part of the orbit path shows where the satellite is in the earth's shadow,  

DLR